Location: Unspecified
(52.4292°N, 19.3359°E)
Time: 15:31:17
(UTC+02:00)

Transit 2A Rocket - Pass Details

Date: 25 May 2024
Orbit: 583 x 910 km, 66.7° (Epoch: 22 June)

Event Time Altitude Azimuth Distance (km) Brightness Sun altitude
Rises 08:29:23 0° 302° (WNW) 3,246 7.8 33.2°
Reaches altitude 10° 08:32:26 10° 320° (NW) 2,382 7.3 33.6°
Maximum altitude 08:36:20 19° 6° (N) 1,887 7.2 34.2°
Drops below altitude 10° 08:40:26 10° 50° (NE) 2,518 8.3 34.8°
Sets 08:43:46 0° 68° (ENE) 3,498 9.1 35.3°
